Location: Cactus School
(34.5700°N, 118.0931°W)
Time: 22:38:42
(UTC-08:00)

Tiros 1 - Pass Details

Date: 30 November 2019
Orbit: 630 x 664 km, 48.4° (Epoch: 10 December)

Event Time Altitude Azimuth Distance (km) Brightness Sun altitude
Rises 08:15:17 0° 210° (SSW) 2,934 10.7 15.5°
Reaches altitude 10° 08:17:45 10° 202° (SSW) 2,022 10.0 15.9°
Maximum altitude 08:22:02 37° 135° (SE) 987 9.8 16.6°
Drops below altitude 10° 08:26:18 10° 68° (ENE) 2,014 10.1 17.2°
Sets 08:28:44 0° 60° (ENE) 2,921 10.7 17.6°
